Regional Weather Roundup
Issued by NWS

Home | Current Version | Previous Version | Text Only | Print | Product List | Glossary On
Versions: 1 2 3 4 5 6 7 8 9 10 11 12 13 14 15 16 17 18 19 20 21 22 23 24 25 26 27 28 29 30 31 32 33 34 35 36 37 38 39 40 41 42 43 44 45 46 47 48 49 50
000
ASHW40 PHFO 220610
RWRHI

WEATHER ROUNDUP FOR HAWAII
NATIONAL WEATHER SERVICE HONOLULU HI
800 PM HST SUN SEP 21 2014

THIS IS AN AUTOMATED REPORT THAT HAS NOT BEEN QUALITY CONTROLLED.

NOTE..."FAIR" INDICATES FEW OR NO CLOUDS BELOW 12,000 FEET WITH NO
SIGNIFICANT WEATHER AND/OR OBSTRUCTIONS TO VISIBILITY.

* - THESE SITES REPORT LIMITED FIELDS

HIZ001>004-220700-
KAUAI-NIIHAU-

CITY           SKY/WX    TMP DP  RH WIND       PRES   REMARKS
LIHUE APT      MOCLDY    81  73  76 NE8       30.01R
PORT ALLEN*      N/A     81 N/A N/A E5          N/A
POIPU*           N/A     79 N/A N/A NE2         N/A
PRINCEVILLE*   NOT AVBL
KOKOLE POINT*  NOT AVBL
MOLOAA DAIRY*  NOT AVBL
WAIMEA HTS*    NOT AVBL
PUU OPAE*      NOT AVBL
PUU LUA*       NOT AVBL
MAKAHA RIDGE*  NOT AVBL
$$

HIZ005>011-220700-
OAHU-

CITY           SKY/WX    TMP DP  RH WIND       PRES   REMARKS
HONOLULU       PTCLDY    83  69  62 E10       29.99R
KALAELOA       CLOUDY    82  71  69 CALM      30.01R
KANEOHE MCB    MOCLDY    81  73  77 E5        30.01R
WHEELER FIELD  NOT AVBL
BELLOWS*       NOT AVBL
KAHUKU*        NOT AVBL
WHEELER*       NOT AVBL
WAIANAE HARBOR NOT AVBL
DILLINGHAM*      N/A     81  73  78 S1          N/A
KAHUKU TRN*      N/A     77  72  83 E7G13       N/A
KAWAILOA*      NOT AVBL
KII*             N/A     81  73  78 E12         N/A
MAKUA RANGE*     N/A     81  73  78 E2          N/A
OAHU FOREST NW NOT AVBL
SCHOFIELD BRK*   N/A     75  72  88 MISG        N/A
SCHOFIELD S*   NOT AVBL
WAIANAE VLY*   NOT AVBL
KUAOKALA*      NOT AVBL
HONOULIUULI*   NOT AVBL
MOKUOLOE IS*     N/A    N/A N/A N/A MISG        N/A
PALEHUA*       NOT AVBL
WAIAWA PHB*    NOT AVBL
$$

HIZ012>013-220700-
MOLOKAI-

CITY           SKY/WX    TMP DP  RH WIND       PRES   REMARKS
MOLOKAI AIRPT  CLEAR     79  72  79 NE6       30.00R
KALAUPAPA      NOT AVBL
MAKAPULAPAI*   NOT AVBL
MOLOKAI 1*     NOT AVBL
PUU ALII*      NOT AVBL
$$

HIZ016-220700-
KAHOOLAWE-

CITY           SKY/WX    TMP DP  RH WIND       PRES   REMARKS
KAHOOLAWE*     NOT AVBL
HAKIOAWA*      NOT AVBL
HONOKANAIA*      N/A     83  72  69 NE12G23     N/A
KANELOA*         N/A     79  72  78 E18G26    29.21R
KEALIALALO*    NOT AVBL
LUA MAKIKA*    NOT AVBL
$$

HIZ014>015-220700-
LANAI-

CITY           SKY/WX    TMP DP  RH WIND       PRES   REMARKS
LANAI CITY     FAIR      75  70  85 NE14G22   30.06R
LANAI 1*       NOT AVBL
$$

HIZ017>028-220700-
MAUI-

CITY           SKY/WX    TMP DP  RH WIND       PRES   REMARKS
KAHULUI        MOCLDY    80  69  69 E7        29.99R
KAPALUA-W MAUI NOT AVBL
HANA AIRPORT   PTCLDY    75  72  88 CALM      30.04S
HANA*          NOT AVBL
HALEAKALA SUMM   N/A     46  41  81 VRB15       N/A
MAALAEA BAY*   NOT AVBL
HALEAKALA*     NOT AVBL
KAUPO GAP*     NOT AVBL
KULA 1*          N/A     57  49  76 E3          N/A
$$

HIZ023>026-220700-
BIG ISLAND OF HAWAII COAST AND LOWER SLOPES-

CITY           SKY/WX    TMP DP  RH WIND       PRES   REMARKS
KAILUA KONA    MOCLDY    83  75  77 W8        29.97R HX  90
HILO           PTCLDY    80  75  84 CALM      30.01R
HONOKAA*       NOT AVBL
KAWAIHAE MWT*  NOT AVBL
KAWAIHAE*        N/A     82 N/A N/A SW6         N/A
SOUTH POINT*   NOT AVBL
UPOLU AIRPORT* NOT AVBL
KAMUELA*       CLEAR     68  66  94 NE13      30.13R
HAKALAU*         N/A     58  57  98 NE1         N/A
KALOKO-HONOKO* NOT AVBL
PALI 2*          N/A     70  66  88 NE9G18      N/A
KEALAKOMO*       N/A     81  73  78 NE12G17     N/A
KAUPULEHU*     NOT AVBL
KAPAPALA*        N/A     72  71  96 CALM        N/A
LOWER KAHUKU*  NOT AVBL
PUHE CS*       NOT AVBL
PUHO CS*       NOT AVBL
PTA KEAMUKU*     N/A     64  63  94 E7          N/A
WAIKOLOA*      NOT AVBL
$$

HIZ027>028-220700-
BIG ISLAND OF HAWAII INTERIOR AND SUMMMITS-

CITY           SKY/WX    TMP DP  RH WIND       PRES   REMARKS
BRADSHAW FIELD MOCLDY    61  58  92 SE2       30.39R
MK VISITOR CEN NOT AVBL
MAUNA KEA*       N/A     36   5  27 E17         N/A  WCI  25
MAUNA LOA*       N/A     46  39  76 MISG        N/A
MAUNA LOA 1*   NOT AVBL
PTA KIPUKA*      N/A     64  63  94 N5          N/A
PTA RANGE 17*    N/A     63  63 100 NW5         N/A
PTA WEST*        N/A     66  64  94 N3G9        N/A
NENE CABIN*    NOT AVBL
AHUMOA*        NOT AVBL
PTA PORTABLE*  NOT AVBL
PUU MALI*      NOT AVBL
$$

HIC003-220700-
NORTHWEST ISLANDS-

CITY           SKY/WX    TMP DP  RH WIND       PRES   REMARKS
MIDWAY ISLAND  PTCLDY    82  72  69 E17       30.05R
MIDWAY NOS*    NOT AVBL
FRENCH FRIGATE NOT AVBL
$$

PHZ110>124-180-220700-
BUOY REPORTS

STATION/POSITION TIME  TEMP    WIND        PRES    WAVE   SWELL
                       AIR SEA DIR/SP/G            HT/PER HT/DIR
                 (UTC) (F)     (DEG/KT/KT) (MB)    (FT/S) (FT/D)
BUOY 51001       NOT AVBL
BUOY 51101       NOT AVBL
BUOY 51100       0600          100/  6       N/A
BUOY 51003       0500   80 83  110/ 10/ 14 1013.9R   5/ 6   5
BUOY 51004       0516   81 81   90/ 14/ 16 1014.7R   4/11   3/340
BARBERS PT BUOY  NOT AVBL
WAIMEA BAY BUOY  0600      83                N/A     3/10   2/340
KAILUA BAY BUOY  0600      83                N/A     4/10   2/ 20
LANAI BUOY       NOT AVBL
BARBERS PT 2     0600      83                N/A     3/11   2/170
PAUWELA MAUI     0600      81                N/A     4/ 5   2/ 10
HILO             0600      82                N/A     3/10   2/ 80
KANEOHE BAY BUOY NOT AVBL
HANALEI KAUAI    NOT AVBL
KAHULUI HARBOR   0600   81 84   60/  9/ 16 1015.2R
HONOLULU HARBOR  0600   82     100/  3/  6 1015.8R
KILO NALU        NOT AVBL
HILO HARBOR      0600   80      CALM  /  2 1015.7R
MOKUOLOE         0600      86              1016.3R
NAWILIWILI       0600      85                N/A
WHOTS BUOY       NOT AVBL
BUOY 51028       NOT AVBL
$$

......................KEY........................................
  SKY/WX - SKY CONDITIONS/PRESENT WEATHER
  TMP    - TEMPERATURE IN FAHRENHEIT
  DWPT   - DEWPOINT IN FAHRENHEIT
  RH     - RELATIVE HUMIDITY IN PERCENT
  WIND   - DIRECTION AND SPEED /MPH FOR ISLANDS...KTS FOR BUOYS/
  PRES   - MEAN SEA LEVEL PRESSURE IN INCHES OF HG
  VSB    - VISIBILITY IN MILES
  HX     - HEAT INDEX
  WCI    - WIND CHILL INDEX
  VRB    - VARIABLE WIND DIRECTION
  N/A    - NOT AVAILABLE


USA.gov is the U.S. government's official web portal to all federal, state and local government web resources and services.